| time (UTC) | temp C | wind direction | speed KPH | gust KPH | rain 1hr cm | rain 24hr cm | rain mn cm | humidity % | barometer mb |
| 20260906090636 | 26 | 355 | 3.2 | 4.8 | 0.00 | 0.03 | 0.03 | 75 | 1023.1 |
| 20260906090132 | 25 | 355 | 3.2 | 4.8 | 0.00 | 0.03 | 0.03 | 77 | 1023.1 |
| 20260906085633 | 25 | 3 | 3.2 | 4.8 | 0.00 | 0.03 | 0.03 | 78 | 1023.1 |
| 20260906085132 | 25 | 10 | 3.2 | 4.8 | 0.00 | 0.03 | 0.03 | 81 | 1023.1 |
| 20260906084633 | 24 | 4 | 3.2 | 4.8 | 0.00 | 0.03 | 0.03 | 83 | 1023.1 |
| 20260906084130 | 24 | 7 | 3.2 | 6.4 | 0.00 | 0.03 | 0.03 | 82 | 1023.1 |
| 20260906083132 | 23 | 4 | 1.6 | 6.4 | 0.00 | 0.03 | 0.03 | 87 | 1023.0 |
| 20260906082636 | 23 | 20 | 1.6 | 4.8 | 0.00 | 0.03 | 0.03 | 87 | 1023.0 |
| 20260906082135 | 23 | 326 | 0.0 | 3.2 | 0.00 | 0.03 | 0.03 | 89 | 1023.0 |
| 20260906081631 | 22 | 310 | 1.6 | 3.2 | 0.00 | 0.03 | 0.03 | 90 | 1023.1 |
| 20260906081137 | 22 | 8 | 0.0 | 3.2 | 0.00 | 0.03 | 0.03 | 92 | 1023.0 |
| 20260906080633 | 22 | 313 | 1.6 | 3.2 | 0.00 | 0.03 | 0.03 | 93 | 1023.0 |
| 20260906080132 | 21 | 13 | 3.2 | 3.2 | 0.00 | 0.03 | 0.03 | 94 | 1022.9 |
| 20260906075626 | 21 | 38 | 1.6 | 3.2 | 0.00 | 0.03 | 0.03 | 95 | 1022.9 |
| 20260906075134 | 21 | 340 | 0.0 | 4.8 | 0.00 | 0.03 | 0.03 | 94 | 1022.9 |
| 20260906074622 | 21 | 8 | 3.2 | 4.8 | 0.00 | 0.03 | 0.03 | 94 | 1022.9 |
| 20260906074125 | 21 | 7 | 1.6 | 3.2 | 0.00 | 0.03 | 0.03 | 95 | 1022.8 |
| 20260906073612 | 21 | 348 | 3.2 | 3.2 | 0.00 | 0.03 | 0.03 | 94 | 1022.8 |
| 20260906073109 | 21 | 0 | 1.6 | 3.2 | 0.00 | 0.03 | 0.03 | 95 | 1022.7 |
| 20260906072610 | 21 | 350 | 0.0 | 3.2 | 0.00 | 0.03 | 0.03 | 95 | 1022.7 |
| 20260906072103 | 20 | 47 | 1.6 | 3.2 | 0.00 | 0.03 | 0.03 | 95 | 1022.7 |
| 20260906071604 | 20 | 250 | 0.0 | 1.6 | 0.00 | 0.03 | 0.03 | 95 | 1022.6 |
| 20260906071103 | 20 | 200 | 0.0 | 1.6 | 0.00 | 0.03 | 0.03 | 96 | 1022.7 |
| 20260906070603 | 20 | 138 | 0.0 | 1.6 | 0.00 | 0.03 | 0.03 | 95 | 1022.6 |
| 20260906065554 | 20 | 145 | 0.0 | 1.6 | 0.00 | 0.03 | 0.03 | 96 | 1022.5 |
| 20260906065054 | 20 | 145 | 0.0 | 0.0 | 0.00 | 0.03 | 0.03 | 96 | 1022.5 |
| 20260906064558 | 20 | 145 | 0.0 | 0.0 | 0.00 | 0.03 | 0.03 | 96 | 1022.5 |
| 20260906064055 | 20 | 145 | 0.0 | 1.6 | 0.00 | 0.03 | 0.03 | 96 | 1022.5 |
| 20260906063553 | 20 | 145 | 0.0 | 1.6 | 0.00 | 0.03 | 0.03 | 96 | 1022.4 |
| 20260906062553 | 20 | 199 | 0.0 | 1.6 | 0.00 | 0.03 | 0.03 | 96 | 1022.4 |
| 20260906062053 | 20 | 183 | 0.0 | 0.0 | 0.00 | 0.03 | 0.03 | 96 | 1022.4 |
| 20260906061555 | 19 | 185 | 0.0 | 0.0 | 0.00 | 0.03 | 0.03 | 96 | 1022.4 |
| 20260906061042 | 19 | 183 | 0.0 | 0.0 | 0.00 | 0.03 | 0.03 | 96 | 1022.3 |
| 20260906060550 | 19 | 183 | 0.0 | 0.0 | 0.00 | 0.03 | 0.03 | 96 | 1022.2 |
| 20260906055034 | 19 | 168 | 0.0 | 0.0 | 0.00 | 0.03 | 0.03 | 96 | 1022.2 |
| 20260906054535 | 18 | 168 | 0.0 | 1.6 | 0.00 | 0.03 | 0.03 | 96 | 1022.1 |
| 20260906053534 | 19 | 193 | 0.0 | 1.6 | 0.03 | 0.03 | 0.03 | 96 | 1022.1 |
| 20260906053033 | 19 | 159 | 0.0 | 0.0 | 0.03 | 0.03 | 0.03 | 96 | 1022.1 |
| 20260906052532 | 19 | 152 | 0.0 | 0.0 | 0.03 | 0.03 | 0.03 | 96 | 1022.1 |
| 20260906052034 | 18 | 142 | 0.0 | 1.6 | 0.03 | 0.03 | 0.03 | 96 | 1022.1 |
| 20260906051535 | 18 | 142 | 0.0 | 1.6 | 0.03 | 0.03 | 0.03 | 96 | 1022.0 |
| 20260906051027 | 19 | 243 | 0.0 | 1.6 | 0.03 | 0.03 | 0.03 | 96 | 1021.9 |
| 20260906050037 | 19 | 243 | 0.0 | 1.6 | 0.03 | 0.00 | 0.03 | 96 | 1021.9 |
| 20260906045031 | 19 | 243 | 0.0 | 1.6 | 0.03 | 0.00 | 0.03 | 96 | 1022.0 |
| 20260906044524 | 19 | 217 | 0.0 | 3.2 | 0.03 | 0.00 | 0.03 | 96 | 1021.9 |
| 20260906044028 | 19 | 217 | 1.6 | 3.2 | 0.03 | 0.00 | 0.00 | 96 | 1021.9 |
| 20260906043527 | 19 | 207 | 3.2 | 3.2 | 0.00 | 0.00 | 0.00 | 96 | 1021.9 |
| 20260906042528 | 19 | 227 | 3.2 | 3.2 | 0.00 | 0.00 | 0.00 | 96 | 1022.0 |
| 20260906041022 | 19 | 226 | 3.2 | 4.8 | 0.00 | 0.00 | 0.00 | 96 | 1021.8 |
| 20260906040525 | 19 | 228 | 3.2 | 4.8 | 0.00 | 0.00 | 0.00 | 96 | 1021.7 |
| 20260906040021 | 19 | 237 | 3.2 | 4.8 | 0.00 | 0.00 | 0.00 | 96 | 1021.7 |
| 20260906035521 | 19 | 241 | 3.2 | 4.8 | 0.00 | 0.00 | 0.00 | 96 | 1021.7 |
| 20260906035018 | 19 | 220 | 3.2 | 6.4 | 0.00 | 0.00 | 0.00 | 96 | 1021.6 |
| 20260906034456 | 19 | 226 | 4.8 | 8.0 | 0.00 | 0.00 | 0.00 | 96 | 1021.6 |
| 20260906033449 | 19 | 219 | 6.4 | 8.0 | 0.00 | 0.00 | 0.00 | 96 | 1021.5 |
| 20260906032952 | 19 | 227 | 6.4 | 8.0 | 0.00 | 0.00 | 0.00 | 96 | 1021.5 |
| 20260906032451 | 19 | 228 | 6.4 | 9.7 | 0.00 | 0.00 | 0.00 | 96 | 1021.6 |
| 20260906031951 | 19 | 231 | 6.4 | 9.7 | 0.00 | 0.00 | 0.00 | 95 | 1021.6 |
| 20260906031447 | 19 | 233 | 9.7 | 9.7 | 0.00 | 0.00 | 0.00 | 96 | 1021.5 |
| 20260906030947 | 20 | 221 | 8.0 | 9.7 | 0.00 | 0.00 | 0.00 | 96 | 1021.4 |
| 20260906025934 | 20 | 219 | 8.0 | 9.7 | 0.00 | 0.00 | 0.00 | 96 | 1021.5 |
| 20260906024936 | 20 | 230 | 8.0 | 9.7 | 0.00 | 0.00 | 0.00 | 95 | 1021.4 |
| 20260906024431 | 20 | 226 | 8.0 | 11.3 | 0.00 | 0.00 | 0.00 | 95 | 1021.5 |
| 20260906023934 | 19 | 227 | 9.7 | 11.3 | 0.00 | 0.00 | 0.00 | 95 | 1021.5 |
| 20260906023434 | 19 | 219 | 9.7 | 11.3 | 0.00 | 0.00 | 0.00 | 95 | 1021.5 |
| 20260906022935 | 19 | 226 | 9.7 | 9.7 | 0.00 | 0.00 | 0.00 | 95 | 1021.5 |
| 20260906022435 | 19 | 223 | 6.4 | 9.7 | 0.00 | 0.00 | 0.00 | 95 | 1021.5 |
| 20260906021932 | 19 | 243 | 6.4 | 9.7 | 0.00 | 0.00 | 0.00 | 94 | 1021.4 |
| 20260906021436 | 19 | 238 | 6.4 | 14.5 | 0.00 | 0.00 | 0.00 | 94 | 1021.4 |
| 20260906020931 | 20 | 240 | 8.0 | 14.5 | 0.00 | 0.00 | 0.00 | 95 | 1021.4 |
| 20260906020426 | 20 | 221 | 11.3 | 14.5 | 0.00 | 0.00 | 0.00 | 94 | 1021.5 |
| 20260906015924 | 20 | 217 | 9.7 | 16.1 | 0.00 | 0.00 | 0.00 | 94 | 1021.5 |
| 20260906015424 | 20 | 237 | 9.7 | 16.1 | 0.00 | 0.00 | 0.00 | 93 | 1021.4 |
| 20260906014422 | 20 | 234 | 9.7 | 11.3 | 0.00 | 0.00 | 0.00 | 93 | 1021.5 |
| 20260906013919 | 20 | 233 | 4.8 | 6.4 | 0.00 | 0.00 | 0.00 | 93 | 1021.5 |
| 20260906013415 | 20 | 204 | 1.6 | 8.0 | 0.00 | 0.00 | 0.00 | 92 | 1021.6 |
| 20260906012409 | 20 | 228 | 6.4 | 8.0 | 0.00 | 0.00 | 0.00 | 91 | 1021.5 |
| 20260906011904 | 20 | 227 | 8.0 | 8.0 | 0.00 | 0.00 | 0.00 | 91 | 1021.6 |
| 20260906011348 | 20 | 219 | 3.2 | 4.8 | 0.00 | 0.00 | 0.00 | 91 | 1021.7 |
| 20260906010850 | 20 | 231 | 3.2 | 4.8 | 0.00 | 0.00 | 0.00 | 91 | 1021.7 |
| 20260906010347 | 20 | 224 | 0.0 | 3.2 | 0.00 | 0.00 | 0.00 | 91 | 1021.6 |
| 20260906005848 | 20 | 202 | 1.6 | 3.2 | 0.00 | 0.00 | 0.00 | 92 | 1021.6 |
| 20260906005349 | 21 | 248 | 1.6 | 3.2 | 0.00 | 0.00 | 0.00 | 92 | 1021.7 |
| 20260906004851 | 21 | 214 | 0.0 | 4.8 | 0.00 | 0.00 | 0.00 | 91 | 1021.7 |
| 20260906004355 | 21 | 227 | 3.2 | 4.8 | 0.00 | 0.00 | 0.00 | 92 | 1021.7 |
| 20260906003846 | 21 | 228 | 0.0 | 6.4 | 0.00 | 0.00 | 0.00 | 91 | 1021.7 |
| 20260906003345 | 21 | 238 | 4.8 | 8.0 | 0.00 | 0.00 | 0.00 | 91 | 1021.8 |
| 20260906002343 | 21 | 227 | 6.4 | 8.0 | 0.00 | 0.00 | 0.00 | 92 | 1021.7 |
| 20260906001839 | 21 | 227 | 0.0 | 4.8 | 0.00 | 0.00 | 0.00 | 93 | 1021.7 |
| 20260906001335 | 20 | 103 | 0.0 | 0.0 | 0.00 | 0.00 | 0.00 | 93 | 1021.8 |
| 20260906000830 | 20 | 103 | 0.0 | 0.0 | 0.00 | 0.00 | 0.00 | 90 | 1021.8 |
| 20260906000330 | 21 | 49 | 0.0 | 0.0 | 0.00 | 0.00 | 0.00 | 91 | 1021.8 |
| 20260905235826 | 21 | 235 | 0.0 | 1.6 | 0.00 | 0.00 | 0.00 | 92 | 1021.7 |
| 20260905235325 | 21 | 234 | 0.0 | 4.8 | 0.00 | 0.00 | 0.00 | 91 | 1021.8 |
| 20260905234826 | 21 | 217 | 3.2 | 4.8 | 0.00 | 0.00 | 0.00 | 91 | 1021.8 |
| 20260905234321 | 21 | 250 | 3.2 | 4.8 | 0.00 | 0.00 | 0.00 | 92 | 1021.8 |
| 20260905233822 | 21 | 240 | 4.8 | 4.8 | 0.00 | 0.00 | 0.00 | 92 | 1021.8 |
| 20260905233314 | 21 | 214 | 0.0 | 4.8 | 0.00 | 0.00 | 0.00 | 91 | 1021.9 |
| 20260905232311 | 21 | 227 | 4.8 | 6.4 | 0.00 | 0.00 | 0.00 | 92 | 1021.8 |
| 20260905231808 | 21 | 183 | 4.8 | 6.4 | 0.00 | 0.00 | 0.00 | 91 | 1021.9 |
| 20260905231253 | 21 | 169 | 0.0 | 4.8 | 0.00 | 0.00 | 0.00 | 90 | 1021.9 |
| 20260905230244 | 21 | 203 | 3.2 | 6.4 | 0.00 | 0.00 | 0.00 | 91 | 1021.8 |
| 20260905225743 | 21 | 180 | 3.2 | 8.0 | 0.00 | 0.00 | 0.00 | 90 | 1021.8 |
| 20260905225246 | 21 | 206 | 3.2 | 11.3 | 0.00 | 0.00 | 0.00 | 90 | 1021.8 |
| 20260905224744 | 21 | 223 | 9.7 | 11.3 | 0.00 | 0.00 | 0.00 | 90 | 1021.6 |
| 20260905224243 | 21 | 224 | 8.0 | 11.3 | 0.00 | 0.00 | 0.00 | 89 | 1021.6 |
| 20260905223331 | 21 | 217 | 6.4 | 8.0 | 0.00 | 0.00 | 0.00 | 89 | 1021.7 |
| 20260905223109 | 21 | 230 | 3.2 | 6.4 | 0.00 | 0.00 | 0.00 | 88 | 1021.7 |
| 20260905222843 | 21 | 214 | 4.8 | 4.8 | 0.00 | 0.00 | 0.00 | 88 | 1021.6 |
| 20260905222637 | 22 | 228 | 3.2 | 6.4 | 0.00 | 0.00 | 0.00 | 87 | 1021.8 |
| 20260905222414 | 22 | 151 | 1.6 | 8.0 | 0.00 | 0.00 | 0.00 | 87 | 1021.8 |
| 20260905221755 | 22 | 154 | 6.4 | 9.7 | 0.00 | 0.00 | 0.00 | 86 | 1021.7 |
| 20260905215200 | 22 | 159 | 6.4 | 8.0 | 0.00 | 0.00 | 0.00 | 87 | 1021.6 |
| 20260905214156 | 22 | 210 | 6.4 | 8.0 | 0.00 | 0.00 | 0.00 | 87 | 1021.5 |
| 20260905213657 | 22 | 237 | 0.0 | 14.5 | 0.00 | 0.00 | 0.00 | 86 | 1021.5 |
| 20260905213157 | 22 | 240 | 8.0 | 17.7 | 0.00 | 0.00 | 0.00 | 86 | 1021.5 |
| 20260905212659 | 22 | 197 | 9.7 | 17.7 | 0.00 | 0.00 | 0.00 | 86 | 1021.4 |
| 20260905212142 | 22 | 214 | 11.3 | 11.3 | 0.00 | 0.00 | 0.00 | 87 | 1021.3 |
| 20260905211643 | 22 | 204 | 8.0 | 9.7 | 0.00 | 0.00 | 0.00 | 87 | 1021.4 |
| 20260905211142 | 22 | 231 | 6.4 | 9.7 | 0.00 | 0.00 | 0.00 | 87 | 1021.3 |
| 20260905210646 | 22 | 231 | 6.4 | 9.7 | 0.00 | 0.00 | 0.00 | 86 | 1021.3 |
| 20260905210140 | 22 | 212 | 6.4 | 11.3 | 0.00 | 0.00 | 0.00 | 86 | 1021.4 |
| 20260905205148 | 22 | 235 | 4.8 | 16.1 | 0.00 | 0.00 | 0.00 | 84 | 1021.3 |
| 20260905204620 | 22 | 203 | 11.3 | 16.1 | 0.00 | 0.00 | 0.00 | 85 | 1021.3 |
| 20260905204114 | 22 | 204 | 11.3 | 14.5 | 0.00 | 0.00 | 0.00 | 84 | 1021.3 |
| 20260905203610 | 22 | 221 | 6.4 | 8.0 | 0.00 | 0.00 | 0.00 | 83 | 1021.3 |
| 20260905203103 | 22 | 257 | 3.2 | 11.3 | 0.00 | 0.00 | 0.00 | 83 | 1021.3 |
| 20260905202603 | 23 | 178 | 4.8 | 11.3 | 0.00 | 0.00 | 0.00 | 82 | 1021.3 |
| 20260905202056 | 23 | 179 | 6.4 | 9.7 | 0.00 | 0.00 | 0.00 | 81 | 1021.2 |
| 20260905201046 | 23 | 197 | 6.4 | 14.5 | 0.00 | 0.00 | 0.00 | 79 | 1021.1 |
| 20260905200547 | 23 | 268 | 4.8 | 16.1 | 0.00 | 0.00 | 0.00 | 79 | 1021.1 |
| 20260905200054 | 23 | 228 | 8.0 | 16.1 | 0.00 | 0.00 | 0.00 | 77 | 1021.1 |
| 20260905195543 | 23 | 261 | 4.8 | 8.0 | 0.00 | 0.00 | 0.00 | 75 | 1021.1 |
| 20260905195039 | 23 | 240 | 4.8 | 8.0 | 0.00 | 0.00 | 0.00 | 74 | 1021.1 |
| 20260905194537 | 23 | 238 | 3.2 | 8.0 | 0.00 | 0.00 | 0.00 | 73 | 1021.1 |
| 20260905194036 | 24 | 248 | 4.8 | 11.3 | 0.00 | 0.00 | 0.00 | 72 | 1021.0 |
| 20260905193538 | 24 | 226 | 8.0 | 11.3 | 0.00 | 0.00 | 0.00 | 71 | 1021.1 |
| 20260905193040 | 25 | 209 | 6.4 | 11.3 | 0.00 | 0.00 | 0.00 | 70 | 1021.0 |
| 20260905192548 | 25 | 227 | 4.8 | 9.7 | 0.00 | 0.00 | 0.00 | 70 | 1021.1 |
| 20260905191034 | 25 | 217 | 8.0 | 9.7 | 0.00 | 0.00 | 0.00 | 69 | 1020.8 |
| 20260905190528 | 25 | 197 | 6.4 | 9.7 | 0.00 | 0.00 | 0.00 | 68 | 1020.8 |
| 20260905185528 | 25 | 212 | 3.2 | 8.0 | 0.00 | 0.00 | 0.00 | 68 | 1020.7 |
| 20260905185018 | 25 | 176 | 6.4 | 8.0 | 0.00 | 0.00 | 0.00 | 68 | 1020.6 |
| 20260905184003 | 25 | 123 | 3.2 | 4.8 | 0.00 | 0.00 | 0.00 | 66 | 1020.5 |
| 20260905183519 | 25 | 279 | 0.0 | 8.0 | 0.00 | 0.00 | 0.00 | 66 | 1020.4 |
| 20260905183018 | 26 | 233 | 4.8 | 11.3 | 0.00 | 0.00 | 0.00 | 65 | 1020.3 |
| 20260905182515 | 26 | 309 | 6.4 | 11.3 | 0.00 | 0.00 | 0.00 | 65 | 1020.2 |
| 20260905182021 | 26 | 309 | 4.8 | 16.1 | 0.00 | 0.00 | 0.00 | 64 | 1020.2 |
| 20260905180947 | 26 | 133 | 8.0 | 19.3 | 0.00 | 0.00 | 0.00 | 63 | 1020.0 |
| 20260905180445 | 26 | 269 | 12.9 | 19.3 | 0.00 | 0.00 | 0.00 | 63 | 1020.0 |
| 20260905174936 | 27 | 204 | 8.0 | 20.9 | 0.00 | 0.00 | 0.00 | 62 | 1019.7 |
| 20260905174441 | 27 | 255 | 6.4 | 20.9 | 0.00 | 0.00 | 0.00 | 60 | 1019.8 |
| 20260905173937 | 27 | 162 | 6.4 | 20.9 | 0.00 | 0.00 | 0.00 | 60 | 1019.8 |
| 20260905173441 | 27 | 203 | 6.4 | 17.7 | 0.00 | 0.00 | 0.00 | 58 | 1019.8 |
| 20260905172935 | 27 | 220 | 6.4 | 19.3 | 0.00 | 0.00 | 0.00 | 55 | 1019.7 |
| 20260905172439 | 28 | 193 | 12.9 | 19.3 | 0.00 | 0.00 | 0.00 | 55 | 1019.6 |
| 20260905171936 | 28 | 233 | 6.4 | 19.3 | 0.00 | 0.00 | 0.00 | 53 | 1019.6 |
| 20260905171439 | 28 | 274 | 8.0 | 19.3 | 0.00 | 0.00 | 0.00 | 50 | 1019.7 |
| 20260905170935 | 28 | 192 | 8.0 | 19.3 | 0.00 | 0.00 | 0.00 | 50 | 1019.7 |
| 20260905170437 | 29 | 231 | 6.4 | 17.7 | 0.00 | 0.00 | 0.00 | 48 | 1019.7 |
| 20260905165936 | 29 | 155 | 6.4 | 17.7 | 0.00 | 0.00 | 0.00 | 47 | 1019.6 |
| 20260905165438 | 30 | 227 | 8.0 | 19.3 | 0.00 | 0.00 | 0.00 | 45 | 1019.6 |
| 20260905164934 | 30 | 182 | 4.8 | 20.9 | 0.00 | 0.00 | 0.00 | 44 | 1019.6 |
| 20260905164437 | 30 | 196 | 12.9 | 22.5 | 0.00 | 0.00 | 0.00 | 43 | 1019.5 |
| 20260905163936 | 30 | 269 | 12.9 | 22.5 | 0.00 | 0.00 | 0.00 | 42 | 1019.5 |
| 20260905163436 | 30 | 221 | 6.4 | 22.5 | 0.00 | 0.00 | 0.00 | 42 | 1019.6 |
| 20260905162935 | 30 | 276 | 8.0 | 19.3 | 0.00 | 0.00 | 0.00 | 42 | 1019.4 |
| 20260905162436 | 30 | 295 | 9.7 | 19.3 | 0.00 | 0.00 | 0.00 | 41 | 1019.4 |
| 20260905161936 | 30 | 230 | 9.7 | 20.9 | 0.00 | 0.00 | 0.00 | 41 | 1019.4 |
| 20260905161434 | 31 | 234 | 12.9 | 22.5 | 0.00 | 0.00 | 0.00 | 41 | 1019.4 |
| 20260905160936 | 31 | 220 | 11.3 | 22.5 | 0.00 | 0.00 | 0.00 | 41 | 1019.4 |
| 20260905160435 | 31 | 161 | 6.4 | 22.5 | 0.00 | 0.00 | 0.00 | 42 | 1019.4 |
| 20260905155938 | 31 | 238 | 12.9 | 22.5 | 0.00 | 0.00 | 0.00 | 42 | 1019.3 |
| 20260905155433 | 31 | 272 | 3.2 | 24.1 | 0.00 | 0.00 | 0.00 | 43 | 1019.4 |
| 20260905154935 | 31 | 245 | 16.1 | 24.1 | 0.00 | 0.00 | 0.00 | 43 | 1019.4 |
| 20260905153934 | 31 | 231 | 11.3 | 22.5 | 0.00 | 0.00 | 0.00 | 42 | 1019.3 |
| 20260905153433 | 31 | 252 | 11.3 | 25.7 | 0.00 | 0.00 | 0.00 | 41 | 1019.4 |
| 20260905152933 | 31 | 264 | 14.5 | 25.7 | 0.00 | 0.00 | 0.00 | 43 | 1019.3 |
| 20260905152432 | 32 | 193 | 17.7 | 24.1 | 0.00 | 0.00 | 0.00 | 43 | 1019.4 |
| 20260905151934 | 32 | 250 | 9.7 | 17.7 | 0.00 | 0.00 | 0.00 | 43 | 1019.3 |
| 20260905150435 | 32 | 247 | 11.3 | 20.9 | 0.00 | 0.00 | 0.00 | 41 | 1019.3 |
| 20260905145931 | 32 | 206 | 9.7 | 24.1 | 0.00 | 0.00 | 0.00 | 42 | 1019.4 |
| 20260905145432 | 32 | 274 | 8.0 | 24.1 | 0.00 | 0.00 | 0.00 | 41 | 1019.5 |
| 20260905143929 | 32 | 265 | 9.7 | 22.5 | 0.00 | 0.00 | 0.00 | 43 | 1019.5 |
| 20260905142927 | 32 | 209 | 14.5 | 25.7 | 0.00 | 0.00 | 0.00 | 42 | 1019.5 |
| 20260905142424 | 32 | 259 | 11.3 | 19.3 | 0.00 | 0.00 | 0.00 | 42 | 1019.6 |
| 20260905140911 | 32 | 199 | 11.3 | 24.1 | 0.00 | 0.00 | 0.00 | 41 | 1019.6 |
| 20260905140406 | 32 | 230 | 11.3 | 22.5 | 0.00 | 0.00 | 0.00 | 41 | 1019.5 |
| 20260905135834 | 32 | 266 | 11.3 | 20.9 | 0.00 | 0.00 | 0.00 | 40 | 1019.6 |
| 20260905135334 | 32 | 173 | 12.9 | 20.9 | 0.00 | 0.00 | 0.00 | 40 | 1019.6 |
| 20260905134834 | 32 | 209 | 6.4 | 11.3 | 0.00 | 0.00 | 0.00 | 39 | 1019.7 |
| 20260905134331 | 32 | 281 | 8.0 | 29.0 | 0.00 | 0.00 | 0.00 | 38 | 1019.7 |
| 20260905133332 | 32 | 252 | 3.2 | 17.7 | 0.00 | 0.00 | 0.00 | 39 | 1019.7 |
| 20260905132832 | 32 | 281 | 8.0 | 22.5 | 0.00 | 0.00 | 0.00 | 38 | 1019.8 |
| 20260905131832 | 32 | 268 | 19.3 | 27.4 | 0.00 | 0.00 | 0.00 | 38 | 1019.9 |
| 20260905131334 | 32 | 272 | 12.9 | 20.9 | 0.00 | 0.00 | 0.00 | 38 | 1020.0 |
| 20260905130830 | 32 | 203 | 8.0 | 17.7 | 0.00 | 0.00 | 0.00 | 37 | 1020.0 |
| 20260905130331 | 32 | 254 | 9.7 | 22.5 | 0.00 | 0.00 | 0.00 | 36 | 1020.1 |
| 20260905125831 | 32 | 266 | 9.7 | 22.5 | 0.00 | 0.00 | 0.00 | 37 | 1020.1 |
| 20260905125333 | 32 | 264 | 16.1 | 22.5 | 0.00 | 0.00 | 0.00 | 36 | 1020.2 |
| 20260905123831 | 32 | 264 | 6.4 | 17.7 | 0.00 | 0.00 | 0.00 | 36 | 1020.4 |
| 20260905123333 | 32 | 285 | 9.7 | 17.7 | 0.00 | 0.00 | 0.00 | 34 | 1020.2 |
| 20260905122829 | 32 | 254 | 6.4 | 19.3 | 0.00 | 0.00 | 0.00 | 35 | 1020.4 |
| 20260905121832 | 32 | 251 | 8.0 | 19.3 | 0.00 | 0.00 | 0.00 | 34 | 1020.4 |
| 20260905121332 | 32 | 210 | 3.2 | 24.1 | 0.00 | 0.00 | 0.00 | 40 | 1020.5 |
| 20260905120829 | 32 | 226 | 12.9 | 24.1 | 0.00 | 0.00 | 0.00 | 39 | 1020.5 |
| 20260905120334 | 32 | 235 | 9.7 | 22.5 | 0.00 | 0.00 | 0.00 | 41 | 1020.5 |
| 20260905115321 | 32 | 250 | 12.9 | 29.0 | 0.00 | 0.00 | 0.00 | 40 | 1020.5 |
| 20260905114818 | 32 | 166 | 3.2 | 25.7 | 0.00 | 0.00 | 0.00 | 43 | 1020.6 |
| 20260905114321 | 31 | 212 | 12.9 | 27.4 | 0.00 | 0.00 | 0.00 | 43 | 1020.6 |
| 20260905113818 | 31 | 219 | 16.1 | 27.4 | 0.00 | 0.00 | 0.00 | 41 | 1020.7 |
| 20260905113318 | 31 | 151 | 6.4 | 20.9 | 0.00 | 0.00 | 0.00 | 42 | 1020.6 |
| 20260905112818 | 31 | 217 | 6.4 | 20.9 | 0.00 | 0.00 | 0.00 | 44 | 1020.6 |
| 20260905112312 | 31 | 138 | 8.0 | 20.9 | 0.00 | 0.00 | 0.00 | 44 | 1020.7 |
| 20260905111814 | 31 | 141 | 11.3 | 22.5 | 0.00 | 0.00 | 0.00 | 45 | 1020.7 |
| 20260905111314 | 31 | 141 | 9.7 | 22.5 | 0.00 | 0.00 | 0.00 | 44 | 1020.7 |
| 20260905110812 | 31 | 179 | 12.9 | 22.5 | 0.00 | 0.00 | 0.00 | 45 | 1020.7 |
| 20260905105810 | 31 | 210 | 8.0 | 22.5 | 0.00 | 0.00 | 0.00 | 45 | 1020.7 |
| 20260905105306 | 31 | 186 | 12.9 | 20.9 | 0.00 | 0.00 | 0.00 | 45 | 1020.7 |
| 20260905104306 | 30 | 224 | 11.3 | 20.9 | 0.00 | 0.00 | 0.00 | 46 | 1020.8 |
| 20260905103807 | 30 | 217 | 14.5 | 20.9 | 0.00 | 0.00 | 0.00 | 45 | 1021.0 |
| 20260905103304 | 30 | 210 | 11.3 | 19.3 | 0.00 | 0.00 | 0.00 | 45 | 1021.0 |
| 20260905102808 | 30 | 203 | 9.7 | 19.3 | 0.00 | 0.00 | 0.00 | 46 | 1021.0 |
| 20260905102306 | 30 | 121 | 9.7 | 16.1 | 0.00 | 0.00 | 0.00 | 47 | 1021.1 |
| 20260905101303 | 30 | 162 | 12.9 | 17.7 | 0.00 | 0.00 | 0.00 | 48 | 1021.0 |
| 20260905100805 | 30 | 188 | 9.7 | 20.9 | 0.00 | 0.00 | 0.00 | 49 | 1021.0 |
| 20260905095306 | 29 | 193 | 6.4 | 11.3 | 0.00 | 0.00 | 0.00 | 52 | 1021.1 |
| 20260905094803 | 29 | 214 | 8.0 | 11.3 | 0.00 | 0.00 | 0.00 | 51 | 1021.0 |
| 20260905094253 | 28 | 140 | 6.4 | 11.3 | 0.00 | 0.00 | 0.00 | 50 | 1021.1 |
| 20260905093754 | 29 | 202 | 8.0 | 11.3 | 0.00 | 0.00 | 0.00 | 52 | 1021.1 |
| 20260905093251 | 28 | 210 | 8.0 | 11.3 | 0.00 | 0.00 | 0.00 | 52 | 1021.2 |
| 20260905092750 | 28 | 145 | 9.7 | 14.5 | 0.00 | 0.00 | 0.00 | 53 | 1021.1 |
| 20260905092251 | 28 | 169 | 9.7 | 14.5 | 0.00 | 0.00 | 0.00 | 54 | 1021.2 |
| 20260905091750 | 28 | 212 | 6.4 | 14.5 | 0.00 | 0.00 | 0.00 | 54 | 1021.3 |
| 20260905091245 | 27 | 151 | 8.0 | 16.1 | 0.00 | 0.00 | 0.00 | 54 | 1021.1 |